When you browse on this site, cookies collect data to enhance your experience and personalize the content and advertising you see.
Visit our Privacy Policy to learn more. By continuing to use the site, you agree to this use of cookies and data.
  • In United Kingdom
  • List of Countries
  • For 7 days
  • Water Temperature
  • Satellite Maps
  • Weather Map
  • Weather Widgets
  • user-avatar
    Login

    Hourly Weather Vasyl'kivtsi

    Today, 25 April, Thursday

    Time Temperature Precipitation Wind Pressure Humidity
    00:00 +8°C° 0 mm 6 mps 740 mmHg 64%
    01:00 +8°C° 0 mm 6 mps 740 mmHg 64%
    02:00 +8°C° 0 mm 6 mps 740 mmHg 65%
    03:00 +7°C° 0 mm 6 mps 740 mmHg 66%
    04:00 +7°C° 0 mm 5 mps 740 mmHg 67%
    05:00 +6°C° 0 mm 5 mps 739 mmHg 69%
    06:00 +7°C° 0 mm 5 mps 739 mmHg 68%
    07:00 +8°C° 0 mm 6 mps 739 mmHg 67%
    08:00 +9°C° 0 mm 6 mps 739 mmHg 67%
    09:00 +11°C° 0 mm 6 mps 739 mmHg 64%
    10:00 +13°C° 0 mm 6 mps 739 mmHg 62%
    11:00 +15°C° 0 mm 6 mps 739 mmHg 59%
    12:00 +16°C° 0 mm 6 mps 739 mmHg 58%
    13:00 +17°C° 0 mm 6 mps 739 mmHg 56%
    14:00 +19°C° 0 mm 6 mps 739 mmHg 54%
    15:00 +19°C° 0 mm 6 mps 739 mmHg 56%
    16:00 +19°C° 0 mm 5 mps 738 mmHg 58%
    17:00 +17°C° 0 mm 5 mps 738 mmHg 60%
    18:00 +17°C° 0 mm 4 mps 738 mmHg 63%
    19:00 +15°C° 0 mm 4 mps 738 mmHg 67%
    20:00 +14°C° 0 mm 4 mps 738 mmHg 71%
    21:00 +13°C° 0 mm 4 mps 738 mmHg 72%
    22:00 +13°C° 0 mm 4 mps 737 mmHg 73%
    23:00 +12°C° 0 mm 4 mps 737 mmHg 75%

    Tomorrow, 26 April, Friday

    Time Temperature Precipitation Wind Pressure Humidity
    00:00 +12°C° 0 mm 4 mps 737 mmHg 76%
    01:00 +11°C° 0 mm 3 mps 737 mmHg 78%
    02:00 +11°C° 0 mm 3 mps 737 mmHg 79%
    03:00 +10°C° 0 mm 3 mps 737 mmHg 80%
    04:00 +9°C° 0 mm 3 mps 737 mmHg 80%
    05:00 +9°C° 0 mm 3 mps 737 mmHg 80%
    06:00 +10°C° 0 mm 3 mps 737 mmHg 78%
    07:00 +11°C° 0 mm 3 mps 737 mmHg 77%
    08:00 +12°C° 0 mm 4 mps 736 mmHg 75%
    09:00 +14°C° 0 mm 4 mps 736 mmHg 70%
    10:00 +17°C° 0 mm 4 mps 736 mmHg 66%
    11:00 +19°C° 0 mm 4 mps 736 mmHg 61%
    12:00 +20°C° 0 mm 4 mps 736 mmHg 59%
    13:00 +21°C° 0 mm 4 mps 735 mmHg 57%
    14:00 +22°C° 0 mm 4 mps 735 mmHg 55%
    15:00 +22°C° 0 mm 4 mps 735 mmHg 56%
    16:00 +22°C° 0 mm 5 mps 734 mmHg 57%
    17:00 +22°C° 0 mm 5 mps 734 mmHg 59%
    18:00 +20°C° 0.2 mm 5 mps 734 mmHg 64%
    19:00 +19°C° 0.2 mm 4 mps 734 mmHg 70%
    20:00 +17°C° 0.2 mm 4 mps 733 mmHg 75%
    21:00 +17°C° 0.3 mm 4 mps 733 mmHg 77%
    22:00 +15°C° 0.3 mm 4 mps 733 mmHg 79%
    23:00 +14°C° 0.3 mm 5 mps 733 mmHg 80%

    Day after tomorrow, 27 April, Saturday

    Time Temperature Precipitation Wind Pressure Humidity
    00:00 +14°C° 0.2 mm 4 mps 733 mmHg 83%
    01:00 +13°C° 0.2 mm 4 mps 733 mmHg 86%
    02:00 +12°C° 0.2 mm 3 mps 733 mmHg 88%
    03:00 +11°C° 0.1 mm 3 mps 732 mmHg 88%
    04:00 +11°C° 0.1 mm 3 mps 732 mmHg 87%
    05:00 +11°C° 0.1 mm 3 mps 732 mmHg 87%
    06:00 +12°C° 0.2 mm 3 mps 732 mmHg 83%
    07:00 +13°C° 0.2 mm 3 mps 732 mmHg 79%
    08:00 +14°C° 0.2 mm 3 mps 732 mmHg 76%
    09:00 +17°C° 0 mm 3 mps 732 mmHg 70%
    10:00 +19°C° 0 mm 3 mps 732 mmHg 64%
    11:00 +21°C° 0 mm 3 mps 732 mmHg 58%
    12:00 +22°C° 0 mm 3 mps 731 mmHg 56%
    13:00 +23°C° 0 mm 4 mps 731 mmHg 55%
    14:00 +23°C° 0 mm 4 mps 731 mmHg 54%
    15:00 +23°C° 0 mm 4 mps 730 mmHg 55%
    16:00 +23°C° 0 mm 5 mps 730 mmHg 56%
    17:00 +23°C° 0 mm 5 mps 729 mmHg 56%
    18:00 +21°C° 0 mm 4 mps 729 mmHg 60%
    19:00 +19°C° 0 mm 4 mps 729 mmHg 64%
    20:00 +17°C° 0 mm 3 mps 729 mmHg 67%
    21:00 +17°C° 0 mm 3 mps 729 mmHg 66%
    22:00 +16°C° 0 mm 3 mps 729 mmHg 66%
    23:00 +14°C° 0 mm 4 mps 729 mmHg 65%

    28 April, Sunday

    Time Temperature Precipitation Wind Pressure Humidity
    00:00 +13°C° 0 mm 3 mps 729 mmHg 65%
    01:00 +13°C° 0 mm 3 mps 729 mmHg 65%
    02:00 +12°C° 0 mm 3 mps 729 mmHg 65%
    03:00 +11°C° 0 mm 3 mps 729 mmHg 65%
    04:00 +11°C° 0 mm 3 mps 728 mmHg 66%
    05:00 +10°C° 0 mm 3 mps 728 mmHg 66%
    06:00 +11°C° 0 mm 3 mps 729 mmHg 67%
    07:00 +13°C° 0 mm 2 mps 729 mmHg 69%
    08:00 +14°C° 0 mm 2 mps 729 mmHg 70%
    09:00 +14°C° 0 mm 2 mps 729 mmHg 72%
    10:00 +15°C° 0 mm 2 mps 729 mmHg 73%
    11:00 +16°C° 0 mm 2 mps 730 mmHg 75%
    12:00 +16°C° 0.2 mm 3 mps 730 mmHg 76%
    13:00 +16°C° 0.2 mm 3 mps 730 mmHg 77%
    14:00 +15°C° 0.2 mm 4 mps 730 mmHg 78%
    15:00 +16°C° 0.3 mm 3 mps 730 mmHg 79%
    16:00 +14°C° 0.3 mm 3 mps 730 mmHg 79%
    17:00 +14°C° 0.3 mm 3 mps 730 mmHg 80%
    18:00 +13°C° 0 mm 3 mps 730 mmHg 82%
    19:00 +12°C° 0 mm 3 mps 730 mmHg 83%
    20:00 +12°C° 0 mm 3 mps 731 mmHg 85%
    21:00 +11°C° 0 mm 3 mps 731 mmHg 85%
    22:00 +10°C° 0 mm 3 mps 731 mmHg 85%
    23:00 +10°C° 0 mm 3 mps 731 mmHg 86%

    29 April, Monday

    Time Temperature Precipitation Wind Pressure Humidity
    00:00 +10°C° 0 mm 3 mps 731 mmHg 86%
    01:00 +9°C° 0 mm 3 mps 731 mmHg 86%
    02:00 +9°C° 0 mm 2 mps 731 mmHg 86%
    03:00 +8°C° 0 mm 2 mps 731 mmHg 88%
    04:00 +8°C° 0 mm 2 mps 731 mmHg 90%
    05:00 +7°C° 0 mm 2 mps 731 mmHg 92%
    06:00 +9°C° 0 mm 2 mps 731 mmHg 87%
    07:00 +10°C° 0 mm 2 mps 731 mmHg 81%
    08:00 +11°C° 0 mm 3 mps 732 mmHg 76%
    09:00 +14°C° 0 mm 2 mps 731 mmHg 71%
    10:00 +15°C° 0 mm 2 mps 731 mmHg 66%
    11:00 +17°C° 0 mm 2 mps 731 mmHg 60%
    12:00 +17°C° 0 mm 2 mps 731 mmHg 58%
    13:00 +18°C° 0 mm 2 mps 731 mmHg 55%
    14:00 +20°C° 0 mm 1 mps 731 mmHg 53%
    15:00 +18°C° 0 mm 2 mps 731 mmHg 54%
    16:00 +18°C° 0 mm 3 mps 731 mmHg 56%
    17:00 +18°C° 0 mm 3 mps 731 mmHg 58%
    18:00 +17°C° 0 mm 3 mps 731 mmHg 67%
    19:00 +14°C° 0 mm 3 mps 731 mmHg 77%
    20:00 +13°C° 0 mm 3 mps 731 mmHg 86%
    21:00 +12°C° 0 mm 4 mps 731 mmHg 88%
    22:00 +11°C° 0 mm 4 mps 731 mmHg 89%
    23:00 +10°C° 0 mm 5 mps 731 mmHg 91%

    30 April, Tuesday

    Time Temperature Precipitation Wind Pressure Humidity
    00:00 +9°C° 0 mm 5 mps 731 mmHg 90%
    01:00 +9°C° 0 mm 5 mps 731 mmHg 88%
    02:00 +9°C° 0 mm 5 mps 731 mmHg 87%
    03:00 +9°C° 0 mm 5 mps 731 mmHg 87%
    04:00 +8°C° 0 mm 5 mps 731 mmHg 87%
    05:00 +8°C° 0 mm 4 mps 731 mmHg 87%
    06:00 +8°C° 0 mm 4 mps 731 mmHg 87%
    07:00 +8°C° 0 mm 5 mps 731 mmHg 86%
    08:00 +8°C° 0 mm 5 mps 732 mmHg 86%
    09:00 +9°C° 0 mm 5 mps 732 mmHg 84%
    10:00 +9°C° 0 mm 5 mps 732 mmHg 82%
    11:00 +9°C° 0 mm 5 mps 732 mmHg 80%
    12:00 +9°C° 0 mm 5 mps 732 mmHg 80%
    13:00 +9°C° 0 mm 5 mps 732 mmHg 80%
    14:00 +9°C° 0 mm 5 mps 732 mmHg 79%
    15:00 +9°C° 0 mm 6 mps 732 mmHg 79%
    16:00 +9°C° 0 mm 6 mps 732 mmHg 80%
    17:00 +8°C° 0 mm 6 mps 732 mmHg 80%
    18:00 +8°C° 0 mm 6 mps 732 mmHg 80%
    19:00 +7°C° 0 mm 6 mps 732 mmHg 81%
    20:00 +7°C° 0 mm 6 mps 732 mmHg 81%
    21:00 +5°C° 0 mm 6 mps 732 mmHg 81%
    22:00 +6°C° 0 mm 5 mps 732 mmHg 82%
    23:00 +6°C° 0 mm 5 mps 732 mmHg 82%
    Show more